Location: Big Meadow
(36.7100°N, 118.8650°W)
Time: 16:32:02
(UTC-07:00)

Daily predictions for brighter satellites

Satellite Brightness Start Highest point End
(mag) Time Altitude Azimuth Time Altitude Azimuth Time Altitude Azimuth
H-2A R/B 3.2 20:40:38 10° SE 20:44:37 31° ENE 20:48:35 10° N
Meteor 1-21 Rocket 4.2 20:39:30 10° S 20:45:00 74° E 20:50:32 10° NNE
ALOS 2.5 20:40:20 10° S 20:45:00 77° W 20:49:41 10° NNW
Cosmos 1777 Rocket 4.0 20:39:55 10° SSW 20:45:11 84° ESE 20:50:28 10° NNE
Cosmos 1328 Rocket 3.6 20:41:47 10° N 20:46:16 76° E 20:50:40 10° S
YAOGAN 11 4.2 20:42:04 10° SSE 20:46:19 61° ENE 20:50:38 10° N
Cosmos 371 Rocket 3.7 20:41:38 10° NNW 20:46:24 65° WSW 20:51:09 10° S
NOSS 3-1 (C) 3.9 20:41:34 10° S 20:46:42 34° ESE 20:52:14 10° NE
Cosmos 1441 Rocket 3.3 20:49:16 10° SSW 20:53:02 79° W 20:56:48 10° N
Cosmos 2219 3.6 20:49:59 10° S 20:55:23 43° ESE 21:00:47 10° NE
Cosmos 2292 4.3 20:57:18 10° N 21:00:21 89° WSW 21:03:53 10° S
DELTA 2 R/B (1) 3.6 20:58:21 10° WNW 21:03:55 86° SSW 21:09:25 10° ESE
Cosmos 2322 Rocket 3.2 21:00:18 10° NW 21:05:37 45° WSW 21:10:56 10° S
Cosmos 2322 3.9 21:01:23 10° NNW 21:07:03 60° ENE 21:12:28 11° SE
Cosmos 1500 Rocket 4.0 21:03:14 10° SSW 21:07:34 68° W 21:11:58 10° N
Cosmos 405 3.1 21:04:51 10° N 21:08:25 58° E 21:11:58 10° SSE
CZ-4 DEB 4.0 21:08:28 10° S 21:11:31 41° W 21:14:35 10° NNW
DELTA 2 R/B(2) 3.8 21:10:20 10° W 21:11:53 45° N 21:13:48 10° ENE
Cosmos 2360 Rocket 2.2 21:08:16 10° NNW 21:13:55 71° ENE 21:19:13 12° SSE
SL-16 R/B 3.5 21:12:44 10° NW 21:17:57 38° WSW 21:23:07 10° S
Cosmos 1908 3.2 21:15:15 10° N 21:19:10 89° W 21:23:05 10° S
Cosmos 1680 Rocket 3.6 21:14:53 10° NNW 21:20:08 68° ENE 21:24:45 13° SSE
Cosmos 1674 2.9 21:16:33 10° SSW 21:20:22 73° W 21:24:14 10° N
H-2A R/B 4.2 21:18:58 10° E 21:20:48 12° ENE 21:22:38 10° NE
SJ-11-01 4.4 21:16:12 10° S 21:20:54 77° WSW 21:25:39 10° NNW
Cosmos 304 Rocket 3.8 21:16:54 10° NNW 21:21:45 75° ENE 21:25:55 14° SSE
Delta 2 Rocket 2.8 21:19:12 10° W 21:22:56 76° S 21:25:47 14° E
SPOT 5 3.1 21:21:14 14° SE 21:24:55 50° ENE 21:29:35 10° N
Cosmos 923 Rocket 4.1 21:19:58 10° NNW 21:25:11 82° WSW 21:30:10 11° SSE
Cosmos 2151 2.9 21:21:27 10° S 21:25:38 83° E 21:29:51 10° N
YAOGAN 6 3.9 21:24:39 17° ESE 21:26:30 26° ENE 21:29:33 10° NNE
Cosmos 1898 Rocket 3.9 21:25:16 10° S 21:30:06 42° ESE 21:34:58 10° NNE
deb Chang Zheng 4 4.0 21:27:10 10° N 21:31:28 64° WNW 21:35:45 10° SSW
SPOT 1/Viking Rocket 4.4 21:29:28 17° SE 21:32:44 34° ENE 21:37:21 10° N
Cosmos 2058 2.9 21:31:09 11° S 21:34:56 61° E 21:38:59 10° NNE
Cosmos 1300 3.3 21:33:27 10° N 21:37:05 39° E 21:38:53 24° SE
SWAS 4.4 21:35:02 10° NNW 21:39:23 88° ENE 21:42:11 21° SSE
Cosmos 2227 Rocket 3.2 21:37:27 19° SE 21:39:44 25° ESE 21:44:15 10° NE
Cosmos 2150 Rocket 4.2 21:35:18 10° S 21:40:35 56° ESE 21:45:56 10° NNE
Cosmos 1437 3.8 21:38:47 10° SSW 21:41:57 45° W 21:45:07 10° N
Sich 1 3.5 21:40:01 20° SSE 21:42:39 43° E 21:46:50 10° NNE
Meteor 1-11 4.2 21:41:27 10° S 21:47:10 69° E 21:52:52 10° NNE
Cosmos 1633 Rocket 3.4 21:45:25 23° SSE 21:47:50 47° E 21:52:02 10° NNE
Hubble Space Telescope 2.6 21:46:07 10° SSW 21:47:41 15° S 21:47:41 15° S
Cosmos 1151 Rocket 4.1 21:46:45 10° NNW 21:50:49 42° W 21:54:55 10° SSW
NOSS 3-1 (A) 3.3 21:45:16 10° SSW 21:51:04 83° ESE 21:57:28 10° NNE
USA 245 3.2 21:52:56 30° ENE 21:52:56 30° ENE 21:54:50 10° N
SL-16 R/B 4.4 21:54:53 10° NNE 21:56:49 12° NE 21:58:44 10° ENE
MetOp-A 4.1 21:53:41 21° SSE 21:57:22 88° E 22:02:45 10° NNW
ERBS 2.5 21:55:20 16° SSW 21:57:52 49° SE 22:01:15 10° NE
Cosmos 2333 Rocket 3.4 21:53:38 10° N 21:58:40 30° ENE 22:01:24 21° ESE
Cosmos 1455 4.1 21:56:55 10° NE 21:59:21 16° ENE 21:59:30 16° ENE
Cosmos 1939 Rocket 4.3 21:56:28 10° SSW 21:59:57 32° W 22:03:29 10° NNW
H-2A R/B 3.9 21:59:45 10° SW 22:03:45 38° SSE 22:21:44 10° E
Cosmos 1805 Rocket 4.0 21:59:45 10° SSW 22:04:08 62° W 22:08:33 10° N
Cosmos 2297 Rocket 3.0 22:05:33 28° ESE 22:06:29 29° ESE 22:11:18 10° NE
ARGOS 3.3 22:03:47 29° SE 22:06:30 61° ENE 22:11:49 10° N
Terra 3.2 22:05:35 21° E 22:06:56 24° ENE 22:10:44 10° NNE
Envisat 3.9 22:02:45 12° S 22:07:07 44° W 22:11:59 10° NNW
OTV 4 1.5 22:05:31 10° WSW 22:07:20 31° SW 22:07:20 31° SW
CZ-4 SHROUD 4.3 22:07:31 27° SSW 22:08:45 40° W 22:11:45 10° NNW
COSMOS 2428 2.7 22:04:57 10° NNW 22:10:38 81° WSW 22:13:39 29° SSE
Cosmos 1726 2.0 22:08:13 10° N 22:12:01 90° SE 22:13:09 44° S
ATLAS 2AS CENTAUR R/B 3.1 22:06:56 13° S 22:13:15 49° ESE 22:20:49 10° NE
Cosmos 2219 Rocket 2.5 22:08:44 10° NNW 22:14:12 52° ENE 22:16:27 33° ESE
USA 32 4.1 22:10:31 10° N 22:15:45 64° E 22:17:50 36° SSE
SL-08 RB Rocket 3.7 22:17:05 42° SE 22:18:27 65° ENE 22:22:54 10° N
Cosmos 220 Rocket 4.0 22:17:45 25° SSW 22:20:18 88° WNW 22:24:45 10° NNE
H-2A R/B 4.3 22:17:05 10° SSW 22:20:35 22° W 22:24:07 10° NW
Tiangong 1 2.7 22:18:04 10° W 22:20:57 34° NNW 22:23:06 15° NE
OAO 2 Rocket 3.3 22:19:18 10° WSW 22:24:35 69° S 22:27:04 32° E
Cosmos 1707 Rocket 4.3 22:21:15 10° NNW 22:25:29 49° W 22:27:35 27° SSW
Cosmos 1869 4.5 22:22:44 10° NNE 22:26:11 28° ENE 22:26:11 28° ENE
Cosmos 1666 Rocket 4.5 22:23:37 16° SSW 22:26:55 46° W 22:31:12 10° N
Cosmos 1937 Rocket 3.6 22:22:41 15° SSW 22:27:06 77° WNW 22:32:19 10° NNE
ATLAS 3B R/B 4.0 22:22:46 10° NNW 22:28:43 29° NE 22:32:31 18° E
Meteor 1-4 Rocket 2.5 22:25:45 10° N 22:29:29 79° W 22:29:55 66° SSW
CZ-4C R/B 3.1 22:33:07 64° ENE 22:33:07 64° ENE 22:36:25 10° N
Cosmos 1980 3.9 22:29:39 10° NNW 22:35:13 56° ENE 22:36:52 41° ESE
Cosmos 1241 Rocket 4.3 22:29:16 10° SSW 22:35:26 88° ESE 22:41:43 10° NNE
Cosmos 990 Rocket 3.9 22:33:34 31° SSW 22:36:07 90° S 22:41:18 10° NNE
Meteor 2-10 4.2 22:31:48 10° N 22:37:34 85° E 22:39:36 43° SSE
CZ-4 R/B 4.2 22:32:48 10° N 22:37:40 63° WNW 22:40:30 24° SSW
Cosmos 1271 Rocket 2.9 22:34:41 10° NNW 22:38:31 66° W 22:39:00 58° SW
Cosmos 1470 Rocket 3.4 22:39:44 59° S 22:40:33 88° W 22:44:52 10° N
Cosmos 1933 Rocket 3.5 22:40:43 57° S 22:41:38 90° W 22:46:07 10° N
Iridium 2 4.0 22:43:31 56° SW 22:44:00 63° W 22:47:50 10° N
Cosmos 1703 4.0 22:43:17 36° SW 22:44:23 48° W 22:48:12 10° N
Cosmos 2237 Rocket 2.3 22:41:49 10° NNW 22:47:31 66° ENE 22:48:54 49° SE
Nadezhda 1 Rocket 3.9 22:43:38 10° N 22:49:46 86° E 22:51:47 46° S
Cosmos 2082 3.7 22:46:37 26° SSW 22:49:58 81° WNW 22:55:44 10° NNE
Cosmos 1626 2.2 22:50:49 74° N 22:50:49 74° N 22:54:17 10° N
Cosmos 192 4.4 22:49:25 10° N 22:54:17 59° ENE 22:54:46 56° E
H-2A R/B 2.1 22:58:14 57° S 22:59:22 86° WSW 23:04:50 10° NNW
Cosmos 1745 Rocket 4.4 22:56:39 24° SSW 23:00:20 57° W 23:06:25 10° N
NOSS 0 Rocket 4.0 22:57:40 10° NNW 23:03:48 70° WSW 23:05:23 50° S
SeaSat 1 4.3 23:06:12 18° ENE 23:07:25 20° NE 23:10:54 10° N
Cosmos 1709 Rocket 3.9 23:07:14 57° SSE 23:08:26 72° E 23:14:31 10° N
Lacrosse 4 Rocket 2.6 23:07:13 10° N 23:11:13 34° ENE 23:11:13 34° ENE
NOSS 2-3 (C) 4.3 23:16:25 49° ENE 23:16:25 49° ENE 23:20:45 10° NE
Cosmos 1125 Rocket 3.4 23:17:24 74° SSW 23:17:55 90° N 23:23:15 10° NNE
Cosmos 1048 Rocket 4.3 23:15:55 10° N 23:21:10 53° ENE 23:21:25 52° E
CARTOSAT-1 4.3 23:22:23 46° W 23:22:23 46° W 23:26:24 10° NNW
Cosmos 2227 Rocket 3.3 23:19:10 15° SW 23:23:30 40° WNW 23:28:49 10° N
Cosmos 1862 Rocket 4.4 23:20:20 10° NNW 23:24:22 42° W 23:24:22 42° W
Cosmos 1933 4.1 23:25:53 10° N 23:28:58 50° N 23:28:58 50° N
Cosmos 1455 4.0 23:31:51 10° NNW 23:34:33 25° WNW 23:34:33 25° WNW
NOSS 2-3 (D) 4.0 23:37:09 72° NE 23:37:09 72° NE 23:42:03 10° NNE
Cosmos 372 Rocket 4.0 23:38:19 72° NE 23:38:19 72° NE 23:43:07 10° NNE
COSMOS 2455 2.7 23:33:49 10° NNW 23:39:52 83° ENE 23:40:19 77° SE
Cosmos 44 Rocket 3.5 23:41:13 69° NE 23:41:13 69° NE 23:45:51 10° NNE
Cosmos 2181 Rocket 3.9 23:34:24 10° N 23:40:50 84° W 23:41:44 68° S
SL-16 R/B 2.1 23:36:06 10° NNW 23:41:49 82° ENE 23:41:57 81° E
CZ-4C R/B 4.5 23:36:16 10° N 23:41:55 25° NE 23:46:52 13° E
Cosmos 2333 Rocket 3.2 23:37:44 10° NW 23:42:54 35° WSW 23:43:25 34° WSW
Terra 3.1 23:44:28 31° W 23:44:30 31° W 23:48:42 10° NW
Cosmos 2184 Rocket 4.0 23:46:39 60° E 23:46:45 60° E 23:52:50 10° NNE
H-2A R/B 4.4 23:43:54 10° NE 23:45:48 22° NE 23:45:48 22° NE
Cosmos 1869 Rocket 4.3 23:50:47 53° NW 23:50:47 53° NW 23:54:28 10° N
Cosmos 2297 Rocket 3.5 23:47:16 20° WSW 23:50:22 35° WNW 23:55:31 10° N
